Notices

What's New in latest Release from April 7th, 2021:

- Updated Glossary, including Speed of Maximum Gust, and Total Hourly Precipitation

- Updated national and regional climate services offices contacts and prices information

- Addition of station inventory lists for 1981-2010, 1971-2000, and 1961-1990 Normals.

If you haven't already, please take our survey and provide feedback about our website: https://eccc.sondage-survey.ca/f/LanguageSelection.aspx?s=442ca660-fcf1-47c0-95a9-59707d6fd709

Hourly Data Report for November 20, 2003

TORONTO CITY
ONTARIO

43°40'00.000" N
79°24'00.000" W
112.50 m
6158355
71508
XTO

Download Data

Hourly Data (November 2003)
Hourly Data Report for November 20, 2003
TIME
LST
Temp Definition
°C
Dew Point Definition
°C
Rel Hum Definition
%
Precip. Amount Definition
mm

Wind Dir Definition
10's deg

Wind Spd Definition
km/h
Visibility Definition
km
Stn Press Definition
kPa
Hmdx Definition


Wind Chill Definition


Weather Definition


00:00 6.2 2.8 79   LegendMM LegendMM LegendMM 99.16     LegendNANA
01:00 5.8 3.0 82   LegendMM LegendMM LegendMM 99.29     LegendNANA
02:00 6.1 2.9 80   LegendMM LegendMM LegendMM 99.36     LegendNANA
03:00 5.4 2.2 80   LegendMM LegendMM LegendMM 99.43     LegendNANA
04:00 5.0 2.2 82   LegendMM LegendMM LegendMM 99.51     LegendNANA
05:00 4.7 2.4 85   LegendMM LegendMM LegendMM 99.59     LegendNANA
06:00 4.7 1.9 82   LegendMM LegendMM LegendMM 99.71     LegendNANA
07:00 4.5 1.9 83   LegendMM LegendMM LegendMM 99.80     LegendNANA
08:00 4.6 2.0 83   LegendMM LegendMM LegendMM 99.90     LegendNANA
09:00 5.7 2.2 78   LegendMM LegendMM LegendMM 99.92     LegendNANA
10:00 7.7 2.6 70   LegendMM LegendMM LegendMM 100.00     LegendNANA
11:00 7.0 1.5 68   LegendMM LegendMM LegendMM 100.05     LegendNANA
12:00 7.3 2.0 69   LegendMM LegendMM LegendMM 100.03     LegendNANA
13:00 9.0 1.7 60   LegendMM LegendMM LegendMM 99.98     LegendNANA
14:00 7.8 1.6 65   LegendMM LegendMM LegendMM 99.95     LegendNANA
15:00 8.0 3.1 71   LegendMM LegendMM LegendMM 99.93     LegendNANA
16:00 8.3 3.2 70   LegendMM LegendMM LegendMM 99.96     LegendNANA
17:00 8.0 3.7 74   LegendMM LegendMM LegendMM 99.90     LegendNANA
18:00 7.8 4.2 78   LegendMM LegendMM LegendMM 99.90     LegendNANA
19:00 7.7 5.2 84   LegendMM LegendMM LegendMM 99.87     LegendNANA
20:00 7.4 5.1 85   LegendMM LegendMM LegendMM 99.83     LegendNANA
21:00 7.1 4.9 86   LegendMM LegendMM LegendMM 99.78     LegendNANA
22:00 6.9 5.1 88   LegendMM LegendMM LegendMM 99.73     LegendNANA
23:00 7.8 4.9 82   LegendMM LegendMM LegendMM 99.67     LegendNANA

Notes on Data Quality.

Legend

  • E = Estimated
  • M = Missing
  • NA = Not Available*
  • [empty] = Indicates an unobserved value
Date modified: